Time,TemperatureF,DewpointF,PressureIn,WindDirection,WindDirectionDegrees,WindSpeedMPH,WindSpeedGustMPH,Humidity,HourlyPrecipIn,Conditions,Clouds,dailyrainin,SoftwareType,DateUTC
2013-06-19 00:01:00,50.4,49.0,30.02,ESE,112,0.6,1.1,95,0.00,FEW,,0.00,WeatherDisplay:10.37,2013-06-19 04:01:00,
2013-06-19 00:02:00,50.2,48.8,30.02,SE,135,0.0,1.1,95,0.00,FEW,,0.00,WeatherDisplay:10.37,2013-06-19 04:02:00,
2013-06-19 00:03:00,50.2,48.8,30.02,SSE,158,0.9,1.7,95,0.00,FEW,,0.00,WeatherDisplay:10.37,2013-06-19 04:03:00,
2013-06-19 00:08:00,50.4,49.0,30.02,SSE,158,0.5,1.1,95,0.00,FEW,,0.00,WeatherDisplay:10.37,2013-06-19 04:08:00,
2013-06-19 00:13:00,50.2,48.8,30.02,SSW,202,0.0,0.0,95,0.00,FEW,,0.00,WeatherDisplay:10.37,2013-06-19 04:13:00,
2013-06-19 00:18:00,50.0,48.6,30.03,NW,315,0.0,0.0,95,0.00,FEW,,0.00,WeatherDisplay:10.37,2013-06-19 04:18:00,
2013-06-19 00:23:00,49.8,48.4,30.03,ESE,112,0.7,1.1,95,0.00,FEW,,0.00,WeatherDisplay:10.37,2013-06-19 04:23:00,
2013-06-19 00:28:00,50.0,48.6,30.03,SSE,158,0.0,0.0,95,0.00,FEW,,0.00,WeatherDisplay:10.37,2013-06-19 04:28:00,
2013-06-19 00:33:00,50.0,48.6,30.03,ESE,112,0.2,1.7,95,0.00,FEW,,0.00,WeatherDisplay:10.37,2013-06-19 04:33:00,
2013-06-19 00:38:00,50.0,48.6,30.03,WNW,292,0.0,0.0,95,0.00,FEW,,0.00,WeatherDisplay:10.37,2013-06-19 04:38:00,
2013-06-19 00:43:00,49.8,48.4,30.03,West,270,0.0,0.0,95,0.00,FEW,,0.00,WeatherDisplay:10.37,2013-06-19 04:43:00,
2013-06-19 00:48:00,50.0,48.6,30.03,SSE,158,1.0,2.3,95,0.00,FEW,,0.00,WeatherDisplay:10.37,2013-06-19 04:48:00,
2013-06-19 00:53:00,50.0,48.6,30.03,SSW,202,0.0,0.0,95,0.00,FEW,,0.00,WeatherDisplay:10.37,2013-06-19 04:53:00,
2013-06-19 00:58:00,50.0,48.6,30.03,SSE,158,3.0,3.5,95,0.00,FEW,,0.00,WeatherDisplay:10.37,2013-06-19 04:58:00,
2013-06-19 01:03:00,50.0,48.6,30.03,West,270,1.7,1.7,95,0.00,FEW,,0.00,WeatherDisplay:10.37,2013-06-19 05:03:00,
2013-06-19 01:08:00,50.0,48.6,30.03,West,270,0.0,0.0,95,0.00,FEW,,0.00,WeatherDisplay:10.37,2013-06-19 05:08:00,
2013-06-19 01:13:00,49.6,48.2,30.03,West,270,0.0,0.0,95,0.00,FEW,,0.00,WeatherDisplay:10.37,2013-06-19 05:13:00,
2013-06-19 01:18:00,49.5,48.1,30.03,SSE,158,0.2,1.7,95,0.00,FEW,,0.00,WeatherDisplay:10.37,2013-06-19 05:18:00,
2013-06-19 01:23:00,49.6,48.2,30.03,SE,135,0.0,1.1,95,0.00,FEW,,0.00,WeatherDisplay:10.37,2013-06-19 05:23:00,
2013-06-19 01:28:00,49.3,47.9,30.03,SE,135,0.0,0.0,95,0.00,FEW,,0.00,WeatherDisplay:10.37,2013-06-19 05:28:00,
2013-06-19 01:33:00,49.3,47.9,30.03,SE,135,2.2,2.3,95,0.00,FEW,,0.00,WeatherDisplay:10.37,2013-06-19 05:33:00,
2013-06-19 01:38:00,49.1,47.7,30.03,East,90,0.0,1.1,95,0.00,FEW,,0.00,WeatherDisplay:10.37,2013-06-19 05:38:00,
2013-06-19 01:43:00,48.9,47.5,30.03,SE,135,0.0,0.0,95,0.00,FEW,,0.00,WeatherDisplay:10.37,2013-06-19 05:43:00,
2013-06-19 01:48:00,48.7,47.3,30.03,NNE,22,0.0,0.0,95,0.00,FEW,,0.00,WeatherDisplay:10.37,2013-06-19 05:48:00,
2013-06-19 01:53:00,48.6,47.2,30.03,NE,45,0.0,0.0,95,0.00,FEW,,0.00,WeatherDisplay:10.37,2013-06-19 05:53:00,
2013-06-19 01:58:00,48.2,46.8,30.03,ESE,112,0.0,0.0,95,0.00,FEW,,0.00,WeatherDisplay:10.37,2013-06-19 05:58:00,
2013-06-19 02:03:00,48.0,46.6,30.03,SSE,158,0.0,0.0,95,0.00,FEW,,0.00,WeatherDisplay:10.37,2013-06-19 06:03:00,
2013-06-19 02:08:00,48.2,46.8,30.03,SSE,158,0.7,1.7,95,0.00,FEW,,0.00,WeatherDisplay:10.37,2013-06-19 06:08:00,
2013-06-19 02:13:00,48.0,46.6,30.03,ESE,112,0.7,0.0,95,0.00,FEW,,0.00,WeatherDisplay:10.37,2013-06-19 06:13:00,
2013-06-19 02:18:00,48.0,46.6,30.03,SE,135,1.7,2.3,95,0.00,FEW,,0.00,WeatherDisplay:10.37,2013-06-19 06:18:00,
2013-06-19 02:23:00,48.0,46.6,30.03,SE,135,2.6,2.7,95,0.00,FEW,,0.00,WeatherDisplay:10.37,2013-06-19 06:23:00,
2013-06-19 02:28:00,48.0,46.6,30.03,ESE,112,2.0,2.7,95,0.00,FEW,,0.00,WeatherDisplay:10.37,2013-06-19 06:28:00,
2013-06-19 02:33:00,47.8,46.4,30.04,SSE,158,1.9,3.5,95,0.00,FEW,,0.00,WeatherDisplay:10.37,2013-06-19 06:33:00,
2013-06-19 02:38:00,48.0,46.6,30.04,West,270,1.7,1.7,95,0.00,FEW,,0.00,WeatherDisplay:10.37,2013-06-19 06:38:00,
2013-06-19 02:43:00,48.0,46.6,30.04,SE,135,0.0,0.0,95,0.00,FEW,,0.00,WeatherDisplay:10.37,2013-06-19 06:43:00,
2013-06-19 02:48:00,47.8,46.4,30.04,SSE,158,0.0,0.0,95,0.00,FEW,,0.00,WeatherDisplay:10.37,2013-06-19 06:48:00,
2013-06-19 02:53:00,47.8,46.4,30.04,ESE,112,0.3,1.7,95,0.00,FEW,,0.00,WeatherDisplay:10.37,2013-06-19 06:53:00,
2013-06-19 02:58:00,47.8,46.4,30.04,ENE,68,0.0,1.1,95,0.00,FEW,,0.00,WeatherDisplay:10.37,2013-06-19 06:58:00,
2013-06-19 03:03:00,47.8,46.4,30.04,ESE,112,0.2,1.1,95,0.00,FEW,,0.00,WeatherDisplay:10.37,2013-06-19 07:03:00,
2013-06-19 03:08:00,47.8,46.4,30.05,ENE,68,1.7,2.3,95,0.00,FEW,,0.00,WeatherDisplay:10.37,2013-06-19 07:08:00,
2013-06-19 03:13:00,48.0,46.6,30.05,SSE,158,0.3,1.1,95,0.00,FEW,,0.00,WeatherDisplay:10.37,2013-06-19 07:13:00,
2013-06-19 03:18:00,48.2,46.8,30.06,East,90,1.7,2.3,95,0.00,FEW,,0.00,WeatherDisplay:10.37,2013-06-19 07:18:00,
2013-06-19 03:23:00,48.2,46.8,30.06,SE,135,1.3,1.7,95,0.00,FEW,,0.00,WeatherDisplay:10.37,2013-06-19 07:23:00,
2013-06-19 03:28:00,48.0,46.6,30.06,ESE,112,0.0,0.0,95,0.00,FEW,,0.00,WeatherDisplay:10.37,2013-06-19 07:28:00,
2013-06-19 03:33:00,48.0,46.6,30.05,ESE,112,0.0,0.0,95,0.00,FEW,,0.00,WeatherDisplay:10.37,2013-06-19 07:33:00,
2013-06-19 03:38:00,48.0,46.6,30.05,ESE,112,1.0,1.7,95,0.00,FEW,,0.00,WeatherDisplay:10.37,2013-06-19 07:38:00,
2013-06-19 03:43:00,47.8,46.4,30.05,SSE,158,0.0,0.0,95,0.00,FEW,,0.00,WeatherDisplay:10.37,2013-06-19 07:43:00,
2013-06-19 03:48:00,47.8,46.4,30.05,South,180,0.0,1.1,95,0.00,FEW,,0.00,WeatherDisplay:10.37,2013-06-19 07:48:00,
2013-06-19 03:53:00,47.7,46.3,30.05,SSE,158,0.0,0.0,95,0.00,FEW,,0.00,WeatherDisplay:10.37,2013-06-19 07:53:00,
2013-06-19 03:58:00,47.3,45.9,30.06,SE,135,0.0,0.0,95,0.00,FEW,,0.00,WeatherDisplay:10.37,2013-06-19 07:58:00,
2013-06-19 04:03:00,47.3,45.9,30.06,ESE,112,0.0,0.0,95,0.00,FEW,,0.00,WeatherDisplay:10.37,2013-06-19 08:03:00,
2013-06-19 04:08:00,47.3,45.9,30.06,ESE,112,0.0,0.0,95,0.00,FEW,,0.00,WeatherDisplay:10.37,2013-06-19 08:08:00,
2013-06-19 04:13:00,47.1,45.7,30.06,ESE,112,0.0,0.0,95,0.00,FEW,,0.00,WeatherDisplay:10.37,2013-06-19 08:13:00,
2013-06-19 04:18:00,46.9,45.5,30.06,ESE,112,0.0,0.0,95,0.00,FEW,,0.00,WeatherDisplay:10.37,2013-06-19 08:18:00,
2013-06-19 04:23:00,46.6,45.2,30.06,ESE,112,1.8,1.8,95,0.00,FEW,,0.00,WeatherDisplay:10.37,2013-06-19 08:23:00,
2013-06-19 04:28:00,46.8,45.4,30.06,NE,45,0.0,0.0,95,0.00,FEW,,0.00,WeatherDisplay:10.37,2013-06-19 08:28:00,
2013-06-19 04:33:00,46.6,45.2,30.06,ESE,112,0.0,0.0,95,0.00,FEW,,0.00,WeatherDisplay:10.37,2013-06-19 08:33:00,
2013-06-19 04:38:00,46.6,45.2,30.06,ESE,112,1.1,2.3,95,0.00,FEW,,0.00,WeatherDisplay:10.37,2013-06-19 08:38:00,
2013-06-19 04:43:00,46.6,45.2,30.06,SE,135,0.0,0.0,95,0.00,FEW,,0.00,WeatherDisplay:10.37,2013-06-19 08:43:00,
2013-06-19 04:48:00,46.6,45.2,30.06,SE,135,0.0,0.0,95,0.00,FEW,,0.00,WeatherDisplay:10.37,2013-06-19 08:48:00,
2013-06-19 04:53:00,46.6,45.2,30.07,ESE,112,0.0,0.0,95,0.00,FEW,,0.00,WeatherDisplay:10.37,2013-06-19 08:53:00,
2013-06-19 04:58:00,46.6,45.2,30.07,ESE,112,1.7,1.7,95,0.00,FEW,,0.00,WeatherDisplay:10.37,2013-06-19 08:58:00,
2013-06-19 05:03:00,46.6,45.2,30.07,ESE,112,0.0,0.0,95,0.00,FEW,,0.00,WeatherDisplay:10.37,2013-06-19 09:03:00,
2013-06-19 05:08:00,46.4,45.0,30.08,SE,135,0.0,0.0,95,0.00,FEW,,0.00,WeatherDisplay:10.37,2013-06-19 09:08:00,
2013-06-19 05:13:00,46.2,44.8,30.08,SE,135,1.4,1.4,95,0.00,FEW,,0.00,WeatherDisplay:10.37,2013-06-19 09:13:00,
2013-06-19 05:18:00,46.2,44.8,30.08,ESE,112,0.0,1.1,95,0.00,FEW,,0.00,WeatherDisplay:10.37,2013-06-19 09:18:00,
2013-06-19 05:23:00,46.2,44.8,30.08,East,90,0.0,0.0,95,0.00,FEW,,0.00,WeatherDisplay:10.37,2013-06-19 09:23:00,
2013-06-19 05:28:00,46.0,44.6,30.08,ESE,112,0.0,0.0,95,0.00,FEW,,0.00,WeatherDisplay:10.37,2013-06-19 09:28:00,
2013-06-19 05:33:00,46.0,44.6,30.08,SE,135,0.0,0.0,95,0.00,FEW,,0.00,WeatherDisplay:10.37,2013-06-19 09:33:00,
2013-06-19 05:38:00,45.9,44.5,30.08,SSE,158,0.0,0.0,95,0.00,FEW,,0.00,WeatherDisplay:10.37,2013-06-19 09:38:00,
2013-06-19 05:43:00,45.9,44.5,30.08,SE,135,0.0,0.0,95,0.00,FEW,,0.00,WeatherDisplay:10.37,2013-06-19 09:43:00,
2013-06-19 05:48:00,45.9,44.5,30.08,SSE,158,0.0,0.0,95,0.00,FEW,,0.00,WeatherDisplay:10.37,2013-06-19 09:48:00,
2013-06-19 05:53:00,45.7,44.4,30.09,SE,135,0.0,0.0,95,0.00,FEW,,0.00,WeatherDisplay:10.37,2013-06-19 09:53:00,
2013-06-19 05:58:00,45.7,44.4,30.09,SE,135,0.0,0.0,95,0.00,FEW,,0.00,WeatherDisplay:10.37,2013-06-19 09:58:00,
2013-06-19 06:03:00,45.5,44.2,30.09,SE,135,0.0,0.0,95,0.00,FEW,,0.00,WeatherDisplay:10.37,2013-06-19 10:03:00,
2013-06-19 06:08:00,45.7,44.4,30.10,SE,135,0.0,0.0,95,0.00,FEW,,0.00,WeatherDisplay:10.37,2013-06-19 10:08:00,
2013-06-19 06:13:00,46.2,44.8,30.10,ESE,112,0.0,0.0,95,0.00,FEW,,0.00,WeatherDisplay:10.37,2013-06-19 10:13:00,
2013-06-19 06:18:00,46.9,45.5,30.10,ESE,112,0.0,0.0,95,0.00,FEW,,0.00,WeatherDisplay:10.37,2013-06-19 10:18:00,
2013-06-19 06:23:00,48.0,46.6,30.10,East,90,0.0,0.0,95,0.00,FEW,,0.00,WeatherDisplay:10.37,2013-06-19 10:23:00,
2013-06-19 06:28:00,49.1,47.7,30.10,ESE,112,0.0,0.0,95,0.00,FEW,,0.00,WeatherDisplay:10.37,2013-06-19 10:28:00,
2013-06-19 06:33:00,49.3,47.9,30.11,ESE,112,0.0,0.0,95,0.00,FEW,,0.00,WeatherDisplay:10.37,2013-06-19 10:33:00,
2013-06-19 06:38:00,49.5,48.1,30.11,ESE,112,0.0,0.0,95,0.00,FEW,,0.00,WeatherDisplay:10.37,2013-06-19 10:38:00,
2013-06-19 06:43:00,50.5,49.1,30.11,ESE,112,0.9,1.1,95,0.00,FEW,,0.00,WeatherDisplay:10.37,2013-06-19 10:43:00,
2013-06-19 06:48:00,51.6,50.2,30.11,East,90,1.7,1.7,95,0.00,FEW,,0.00,WeatherDisplay:10.37,2013-06-19 10:48:00,
2013-06-19 06:53:00,52.3,50.9,30.11,ESE,112,1.3,2.3,95,0.00,FEW,,0.00,WeatherDisplay:10.37,2013-06-19 10:53:00,
2013-06-19 06:58:00,52.9,51.5,30.11,ESE,112,2.5,3.5,95,0.00,FEW,,0.00,WeatherDisplay:10.37,2013-06-19 10:58:00,
2013-06-19 07:03:00,53.6,51.9,30.11,East,90,1.7,2.3,94,0.00,BKN,,0.00,WeatherDisplay:10.37,2013-06-19 11:03:00,
2013-06-19 07:08:00,53.8,51.2,30.12,East,90,1.8,2.7,91,0.00,BKN,,0.00,WeatherDisplay:10.37,2013-06-19 11:08:00,
2013-06-19 07:13:00,53.8,50.9,30.12,ESE,112,2.6,3.5,90,0.00,BKN,,0.00,WeatherDisplay:10.37,2013-06-19 11:13:00,
2013-06-19 07:18:00,53.4,50.5,30.12,ESE,112,2.0,2.3,90,0.00,BKN,,0.00,WeatherDisplay:10.37,2013-06-19 11:18:00,
2013-06-19 07:23:00,53.8,51.2,30.12,ESE,112,1.7,2.3,91,0.00,BKN,,0.00,WeatherDisplay:10.37,2013-06-19 11:23:00,
2013-06-19 07:28:00,55.4,51.9,30.12,East,90,0.7,2.3,88,0.00,BKN,,0.00,WeatherDisplay:10.37,2013-06-19 11:28:00,
2013-06-19 07:33:00,57.4,52.9,30.13,North,360,1.5,2.3,85,0.00,BKN,,0.00,WeatherDisplay:10.37,2013-06-19 11:33:00,
2013-06-19 07:38:00,59.2,53.0,30.13,ESE,112,2.2,2.3,80,0.00,BKN,,0.00,WeatherDisplay:10.37,2013-06-19 11:38:00,
2013-06-19 07:43:00,59.5,52.6,30.13,ESE,112,3.2,3.5,78,0.00,BKN,,0.00,WeatherDisplay:10.37,2013-06-19 11:43:00,
2013-06-19 07:48:00,59.9,52.3,30.13,SSE,158,2.8,3.5,76,0.00,BKN,,0.00,WeatherDisplay:10.37,2013-06-19 11:48:00,
2013-06-19 07:53:00,59.7,52.1,30.13,North,360,2.6,3.7,76,0.00,BKN,,0.00,WeatherDisplay:10.37,2013-06-19 11:53:00,
2013-06-19 07:58:00,60.3,51.6,30.13,ESE,112,4.2,5.8,73,0.00,BKN,,0.00,WeatherDisplay:10.37,2013-06-19 11:58:00,
2013-06-19 08:03:00,60.6,51.9,30.13,ENE,68,3.1,4.6,73,0.00,BKN,,0.00,WeatherDisplay:10.37,2013-06-19 12:03:00,
2013-06-19 08:08:00,61.5,52.4,30.14,East,90,3.1,3.5,72,0.00,BKN,,0.00,WeatherDisplay:10.37,2013-06-19 12:08:00,
2013-06-19 08:13:00,61.3,52.2,30.14,East,90,3.6,5.8,72,0.00,FEW,,0.00,WeatherDisplay:10.37,2013-06-19 12:13:00,
2013-06-19 08:18:00,62.6,52.3,30.14,ESE,112,3.0,3.7,69,0.00,FEW,,0.00,WeatherDisplay:10.37,2013-06-19 12:18:00,
2013-06-19 08:23:00,63.0,52.3,30.14,ESE,112,4.2,5.8,68,0.00,FEW,,0.00,WeatherDisplay:10.37,2013-06-19 12:23:00,
2013-06-19 08:28:00,61.3,50.6,30.14,ENE,68,5.5,8.1,68,0.00,FEW,,0.00,WeatherDisplay:10.37,2013-06-19 12:28:00,
2013-06-19 08:33:00,62.4,50.5,30.14,ESE,112,4.2,5.8,65,0.00,FEW,,0.00,WeatherDisplay:10.37,2013-06-19 12:33:00,
2013-06-19 08:38:00,63.1,51.1,30.14,WNW,292,4.4,5.8,65,0.00,FEW,,0.00,WeatherDisplay:10.37,2013-06-19 12:38:00,
2013-06-19 08:43:00,63.3,50.5,30.15,ESE,112,4.8,5.8,63,0.00,FEW,,0.00,WeatherDisplay:10.37,2013-06-19 12:43:00,
2013-06-19 08:48:00,63.7,50.0,30.15,SSE,158,5.8,6.9,61,0.00,FEW,,0.00,WeatherDisplay:10.37,2013-06-19 12:48:00,
2013-06-19 08:53:00,62.2,48.6,30.15,ESE,112,6.7,8.1,61,0.00,FEW,,0.00,WeatherDisplay:10.37,2013-06-19 12:53:00,
2013-06-19 08:58:00,61.7,48.5,30.15,SE,135,5.3,5.8,62,0.00,FEW,,0.00,WeatherDisplay:10.37,2013-06-19 12:58:00,
2013-06-19 09:03:00,63.5,48.5,30.15,ENE,68,4.1,5.3,58,0.00,SCT,,0.00,WeatherDisplay:10.37,2013-06-19 13:03:00,
2013-06-19 09:08:00,63.7,49.1,30.15,ESE,112,5.7,6.3,59,0.00,SCT,,0.00,WeatherDisplay:10.37,2013-06-19 13:08:00,
2013-06-19 09:13:00,64.2,49.6,30.15,East,90,3.8,4.6,59,0.00,SCT,,0.00,WeatherDisplay:10.37,2013-06-19 13:13:00,
2013-06-19 09:18:00,65.1,49.5,30.15,ESE,112,6.3,6.9,57,0.00,SCT,,0.00,WeatherDisplay:10.37,2013-06-19 13:18:00,
2013-06-19 09:23:00,65.7,49.1,30.15,SE,135,4.8,5.8,55,0.00,SCT,,0.00,WeatherDisplay:10.37,2013-06-19 13:23:00,
2013-06-19 09:28:00,65.7,48.6,30.15,ESE,112,4.1,4.7,54,0.00,SCT,,0.00,WeatherDisplay:10.37,2013-06-19 13:28:00,
2013-06-19 09:33:00,66.2,48.0,30.15,East,90,3.4,5.8,52,0.00,SCT,,0.00,WeatherDisplay:10.37,2013-06-19 13:33:00,
2013-06-19 09:38:00,66.7,49.0,30.15,ESE,112,5.6,6.9,53,0.00,SCT,,0.00,WeatherDisplay:10.37,2013-06-19 13:38:00,
2013-06-19 09:43:00,68.2,49.9,30.15,East,90,2.9,4.6,52,0.00,SCT,,0.00,WeatherDisplay:10.37,2013-06-19 13:43:00,
2013-06-19 09:48:00,67.8,48.5,30.15,ESE,112,4.5,5.8,50,0.00,SCT,,0.00,WeatherDisplay:10.37,2013-06-19 13:48:00,
2013-06-19 09:53:00,67.1,48.4,30.16,ESE,112,4.6,5.8,51,0.00,SCT,,0.00,WeatherDisplay:10.37,2013-06-19 13:53:00,
2013-06-19 09:58:00,68.0,48.1,30.16,West,270,3.8,5.8,49,0.00,SCT,,0.00,WeatherDisplay:10.37,2013-06-19 13:58:00,
2013-06-19 10:03:00,67.5,49.3,30.16,SE,135,4.6,6.9,52,0.00,SCT,,0.00,WeatherDisplay:10.37,2013-06-19 14:03:00,
2013-06-19 10:08:00,68.7,48.8,30.16,SSW,202,3.9,5.8,49,0.00,SCT,,0.00,WeatherDisplay:10.37,2013-06-19 14:08:00,
2013-06-19 10:13:00,70.2,47.3,30.16,East,90,6.0,6.9,44,0.00,FEW,,0.00,WeatherDisplay:10.37,2013-06-19 14:13:00,
2013-06-19 10:18:00,70.0,46.5,30.16,SE,135,2.4,4.6,43,0.00,FEW,,0.00,WeatherDisplay:10.37,2013-06-19 14:18:00,
2013-06-19 10:23:00,69.8,46.9,30.16,NNE,22,5.2,5.8,44,0.00,FEW,,0.00,WeatherDisplay:10.37,2013-06-19 14:23:00,
2013-06-19 10:28:00,71.1,46.2,30.16,ESE,112,3.2,4.6,41,0.00,FEW,,0.00,WeatherDisplay:10.37,2013-06-19 14:28:00,
2013-06-19 10:33:00,70.5,46.3,30.16,ESE,112,6.0,6.3,42,0.00,FEW,,0.00,WeatherDisplay:10.37,2013-06-19 14:33:00,
2013-06-19 10:38:00,70.7,47.1,30.16,SSE,158,2.4,4.2,43,0.00,FEW,,0.00,WeatherDisplay:10.37,2013-06-19 14:38:00,
2013-06-19 10:43:00,70.5,48.1,30.16,South,180,2.0,2.3,45,0.00,FEW,,0.00,WeatherDisplay:10.37,2013-06-19 14:43:00,
2013-06-19 10:48:00,72.1,47.7,30.16,SE,135,4.0,5.8,42,0.00,FEW,,0.00,WeatherDisplay:10.37,2013-06-19 14:48:00,
2013-06-19 10:53:00,71.8,46.8,30.16,SE,135,4.8,5.8,41,0.00,FEW,,0.00,WeatherDisplay:10.37,2013-06-19 14:53:00,
2013-06-19 10:58:00,71.8,46.2,30.16,SW,225,3.2,3.7,40,0.00,FEW,,0.00,WeatherDisplay:10.37,2013-06-19 14:58:00,
2013-06-19 11:03:00,72.1,44.4,30.16,SW,225,2.9,4.6,37,0.00,FEW,,0.00,WeatherDisplay:10.37,2013-06-19 15:03:00,
2013-06-19 11:08:00,74.5,45.8,30.16,SE,135,2.4,2.7,36,0.00,FEW,,0.00,WeatherDisplay:10.37,2013-06-19 15:08:00,
2013-06-19 11:13:00,73.6,43.5,30.16,NNW,338,3.7,4.6,34,0.00,FEW,,0.00,WeatherDisplay:10.37,2013-06-19 15:13:00,
2013-06-19 11:18:00,73.4,44.8,30.16,West,270,5.5,5.8,36,0.00,FEW,,0.00,WeatherDisplay:10.37,2013-06-19 15:18:00,
2013-06-19 11:23:00,73.6,44.2,30.16,South,180,3.5,3.5,35,0.00,FEW,,0.00,WeatherDisplay:10.37,2013-06-19 15:23:00,
2013-06-19 11:28:00,72.5,44.7,30.16,ESE,112,5.4,6.9,37,0.00,FEW,,0.00,WeatherDisplay:10.37,2013-06-19 15:28:00,
2013-06-19 11:33:00,73.4,44.8,30.16,West,270,3.1,4.6,36,0.00,FEW,,0.00,WeatherDisplay:10.37,2013-06-19 15:33:00,
2013-06-19 11:38:00,73.9,44.5,30.16,ESE,112,3.6,3.7,35,0.00,FEW,,0.00,WeatherDisplay:10.37,2013-06-19 15:38:00,
2013-06-19 11:43:00,74.1,43.1,30.16,NNW,338,2.4,3.5,33,0.00,FEW,,0.00,WeatherDisplay:10.37,2013-06-19 15:43:00,
2013-06-19 11:48:00,73.8,43.7,30.16,ESE,112,5.4,8.3,34,0.00,FEW,,0.00,WeatherDisplay:10.37,2013-06-19 15:48:00,
2013-06-19 11:53:00,71.6,43.2,30.15,ESE,112,4.7,8.1,36,0.00,FEW,,0.00,WeatherDisplay:10.37,2013-06-19 15:53:00,
2013-06-19 11:58:00,71.2,44.3,30.15,SSE,158,3.5,4.6,38,0.00,FEW,,0.00,WeatherDisplay:10.37,2013-06-19 15:58:00,
2013-06-19 12:03:00,73.0,41.4,30.15,East,90,4.2,5.8,32,0.00,FEW,,0.00,WeatherDisplay:10.37,2013-06-19 16:03:00,
2013-06-19 12:08:00,73.0,43.0,30.16,ENE,68,4.8,6.9,34,0.00,FEW,,0.00,WeatherDisplay:10.37,2013-06-19 16:08:00,
2013-06-19 12:13:00,71.6,42.5,30.16,East,90,7.8,10.4,35,0.00,FEW,,0.00,WeatherDisplay:10.37,2013-06-19 16:13:00,
2013-06-19 12:18:00,71.6,43.9,30.16,West,270,3.9,5.8,37,0.00,FEW,,0.00,WeatherDisplay:10.37,2013-06-19 16:18:00,
2013-06-19 12:23:00,72.3,43.8,30.16,ESE,112,5.1,5.8,36,0.00,FEW,,0.00,WeatherDisplay:10.37,2013-06-19 16:23:00,
2013-06-19 12:28:00,72.5,42.5,30.16,East,90,4.9,5.8,34,0.00,FEW,,0.00,WeatherDisplay:10.37,2013-06-19 16:28:00,
2013-06-19 12:33:00,71.8,43.4,30.16,East,90,3.3,4.7,36,0.00,FEW,,0.00,WeatherDisplay:10.37,2013-06-19 16:33:00,
2013-06-19 12:38:00,72.5,44.7,30.16,West,270,2.5,5.3,37,0.00,FEW,,0.00,WeatherDisplay:10.37,2013-06-19 16:38:00,
2013-06-19 12:43:00,73.4,45.5,30.15,North,360,3.1,4.6,37,0.00,FEW,,0.00,WeatherDisplay:10.37,2013-06-19 16:43:00,
2013-06-19 12:48:00,72.9,43.6,30.15,ENE,68,5.4,6.9,35,0.00,FEW,,0.00,WeatherDisplay:10.37,2013-06-19 16:48:00,
2013-06-19 12:53:00,72.9,45.1,30.15,East,90,2.8,4.7,37,0.00,FEW,,0.00,WeatherDisplay:10.37,2013-06-19 16:53:00,
2013-06-19 12:58:00,73.4,45.5,30.15,East,90,5.5,8.1,37,0.00,FEW,,0.00,WeatherDisplay:10.37,2013-06-19 16:58:00,
2013-06-19 13:03:00,73.0,43.7,30.15,South,180,3.6,6.9,35,0.00,FEW,,0.00,WeatherDisplay:10.37,2013-06-19 17:03:00,
2013-06-19 13:08:00,72.9,45.8,30.15,ESE,112,4.2,7.3,38,0.00,FEW,,0.00,WeatherDisplay:10.37,2013-06-19 17:08:00,
2013-06-19 13:13:00,73.2,43.1,30.15,ESE,112,2.9,4.6,34,0.00,SCT,,0.00,WeatherDisplay:10.37,2013-06-19 17:13:00,
2013-06-19 13:18:00,74.8,43.8,30.15,NNE,22,2.3,3.5,33,0.00,SCT,,0.00,WeatherDisplay:10.37,2013-06-19 17:18:00,
2013-06-19 13:23:00,74.1,44.7,30.15,ESE,112,8.1,9.2,35,0.00,SCT,,0.00,WeatherDisplay:10.37,2013-06-19 17:23:00,
2013-06-19 13:28:00,74.7,45.2,30.15,East,90,5.5,6.9,35,0.00,SCT,,0.00,WeatherDisplay:10.37,2013-06-19 17:28:00,
2013-06-19 13:33:00,74.1,43.9,30.15,South,180,1.8,2.3,34,0.00,SCT,,0.00,WeatherDisplay:10.37,2013-06-19 17:33:00,
2013-06-19 13:38:00,75.6,45.2,30.15,West,270,3.3,4.6,34,0.00,SCT,,0.00,WeatherDisplay:10.37,2013-06-19 17:38:00,
2013-06-19 13:43:00,75.7,44.5,30.15,NE,45,3.1,4.6,33,0.00,SCT,,0.00,WeatherDisplay:10.37,2013-06-19 17:43:00,
2013-06-19 13:48:00,74.7,46.7,30.15,East,90,3.6,5.8,37,0.00,SCT,,0.00,WeatherDisplay:10.37,2013-06-19 17:48:00,
2013-06-19 13:53:00,73.8,43.7,30.15,East,90,2.7,2.7,34,0.00,SCT,,0.00,WeatherDisplay:10.37,2013-06-19 17:53:00,
2013-06-19 13:58:00,73.8,43.7,30.15,WSW,248,2.7,2.7,34,0.00,SCT,,0.00,WeatherDisplay:10.37,2013-06-19 17:58:00,
2013-06-19 14:03:00,75.4,46.6,30.15,ESE,112,1.9,4.6,36,0.00,SCT,,0.00,WeatherDisplay:10.37,2013-06-19 18:03:00,
2013-06-19 14:08:00,74.8,46.1,30.15,West,270,2.6,3.5,36,0.00,SCT,,0.00,WeatherDisplay:10.37,2013-06-19 18:08:00,
2013-06-19 14:13:00,75.7,46.1,30.15,ENE,68,4.1,6.8,35,0.00,SCT,,0.00,WeatherDisplay:10.37,2013-06-19 18:13:00,
2013-06-19 14:18:00,74.3,45.6,30.15,NE,45,6.1,8.1,36,0.00,SCT,,0.00,WeatherDisplay:10.37,2013-06-19 18:18:00,
2013-06-19 14:23:00,75.0,47.7,30.15,West,270,2.7,3.5,38,0.00,SCT,,0.00,WeatherDisplay:10.37,2013-06-19 18:23:00,
2013-06-19 14:28:00,75.2,45.7,30.14,ESE,112,4.3,6.9,35,0.00,SCT,,0.00,WeatherDisplay:10.37,2013-06-19 18:28:00,
2013-06-19 14:33:00,74.8,45.3,30.14,East,90,1.8,2.3,35,0.00,SCT,,0.00,WeatherDisplay:10.37,2013-06-19 18:33:00,
2013-06-19 14:38:00,75.4,45.1,30.14,WNW,292,5.3,7.3,34,0.00,SCT,,0.00,WeatherDisplay:10.37,2013-06-19 18:38:00,
2013-06-19 14:43:00,75.4,44.3,30.15,South,180,4.7,5.8,33,0.00,SCT,,0.00,WeatherDisplay:10.37,2013-06-19 18:43:00,
2013-06-19 14:48:00,75.0,45.5,30.15,ESE,112,5.8,6.9,35,0.00,SCT,,0.00,WeatherDisplay:10.37,2013-06-19 18:48:00,
2013-06-19 14:53:00,73.6,43.5,30.15,East,90,6.9,9.4,34,0.00,SCT,,0.00,WeatherDisplay:10.37,2013-06-19 18:53:00,
2013-06-19 14:58:00,73.8,44.4,30.15,NNE,22,6.0,7.3,35,0.00,SCT,,0.00,WeatherDisplay:10.37,2013-06-19 18:58:00,
2013-06-19 15:03:00,74.5,43.5,30.15,ENE,68,3.4,4.6,33,0.00,SCT,,0.00,WeatherDisplay:10.37,2013-06-19 19:03:00,
2013-06-19 15:08:00,74.1,43.1,30.15,West,270,6.4,8.1,33,0.00,SCT,,0.00,WeatherDisplay:10.37,2013-06-19 19:08:00,
2013-06-19 15:13:00,73.9,43.0,30.15,West,270,4.4,5.8,33,0.00,SCT,,0.00,WeatherDisplay:10.37,2013-06-19 19:13:00,
2013-06-19 15:18:00,75.0,43.1,30.14,WSW,248,4.0,6.3,32,0.00,SCT,,0.00,WeatherDisplay:10.37,2013-06-19 19:18:00,
2013-06-19 15:23:00,73.9,43.0,30.14,WNW,292,6.1,6.9,33,0.00,SCT,,0.00,WeatherDisplay:10.37,2013-06-19 19:23:00,
2013-06-19 15:28:00,74.8,43.0,30.14,ESE,112,2.5,3.5,32,0.00,SCT,,0.00,WeatherDisplay:10.37,2013-06-19 19:28:00,
2013-06-19 15:33:00,74.8,43.0,30.14,ESE,112,2.7,2.7,32,0.00,SCT,,0.00,WeatherDisplay:10.37,2013-06-19 19:33:00,
2013-06-19 15:38:00,73.9,44.5,30.14,NNW,338,4.9,5.8,35,0.00,SCT,,0.00,WeatherDisplay:10.37,2013-06-19 19:38:00,
2013-06-19 15:43:00,74.1,45.4,30.14,SSW,202,3.8,5.8,36,0.00,SCT,,0.00,WeatherDisplay:10.37,2013-06-19 19:43:00,
2013-06-19 15:48:00,74.7,43.7,30.14,West,270,4.1,9.2,33,0.00,SCT,,0.00,WeatherDisplay:10.37,2013-06-19 19:48:00,
2013-06-19 15:53:00,75.7,44.5,30.14,NW,315,3.8,5.3,33,0.00,SCT,,0.00,WeatherDisplay:10.37,2013-06-19 19:53:00,
2013-06-19 15:58:00,74.1,43.9,30.14,NE,45,2.9,5.8,34,0.00,SCT,,0.00,WeatherDisplay:10.37,2013-06-19 19:58:00,
2013-06-19 16:03:00,73.4,43.3,30.14,NE,45,4.2,4.6,34,0.00,SCT,,0.00,WeatherDisplay:10.37,2013-06-19 20:03:00,
2013-06-19 16:08:00,73.9,43.8,30.14,North,360,4.3,5.8,34,0.00,SCT,,0.00,WeatherDisplay:10.37,2013-06-19 20:08:00,
2013-06-19 16:13:00,74.1,44.7,30.14,NE,45,1.7,3.5,35,0.00,SCT,,0.00,WeatherDisplay:10.37,2013-06-19 20:13:00,
2013-06-19 16:18:00,74.8,43.0,30.14,SSW,202,3.4,4.6,32,0.00,SCT,,0.00,WeatherDisplay:10.37,2013-06-19 20:18:00,
2013-06-19 16:23:00,73.9,42.2,30.14,ESE,112,4.6,5.8,32,0.00,SCT,,0.00,WeatherDisplay:10.37,2013-06-19 20:23:00,
2013-06-19 16:28:00,73.0,43.7,30.14,East,90,5.8,6.9,35,0.00,SCT,,0.00,WeatherDisplay:10.37,2013-06-19 20:28:00,
2013-06-19 16:33:00,72.9,42.9,30.14,ESE,112,5.8,5.8,34,0.00,SCT,,0.00,WeatherDisplay:10.37,2013-06-19 20:33:00,
2013-06-19 16:38:00,74.3,42.5,30.14,East,90,4.3,4.6,32,0.00,SCT,,0.00,WeatherDisplay:10.37,2013-06-19 20:38:00,
2013-06-19 16:43:00,73.8,43.7,30.14,NNE,22,4.2,6.9,34,0.00,SCT,,0.00,WeatherDisplay:10.37,2013-06-19 20:43:00,
2013-06-19 16:48:00,73.2,42.4,30.14,ESE,112,5.5,6.9,33,0.00,SCT,,0.00,WeatherDisplay:10.37,2013-06-19 20:48:00,
2013-06-19 16:53:00,73.6,42.7,30.14,SE,135,3.3,4.6,33,0.00,SCT,,0.00,WeatherDisplay:10.37,2013-06-19 20:53:00,
2013-06-19 16:58:00,75.4,43.5,30.14,ESE,112,0.9,2.3,32,0.00,SCT,,0.00,WeatherDisplay:10.37,2013-06-19 20:58:00,
2013-06-19 17:03:00,74.8,43.8,30.14,ESE,112,1.6,4.2,33,0.00,SCT,,0.00,WeatherDisplay:10.37,2013-06-19 21:03:00,
2013-06-19 17:08:00,75.2,41.6,30.13,NE,45,5.2,6.9,30,0.00,SCT,,0.00,WeatherDisplay:10.37,2013-06-19 21:08:00,
2013-06-19 17:13:00,73.6,41.1,30.13,West,270,4.6,5.8,31,0.00,SCT,,0.00,WeatherDisplay:10.37,2013-06-19 21:13:00,
2013-06-19 17:18:00,74.1,41.5,30.13,South,180,3.0,3.5,31,0.00,SCT,,0.00,WeatherDisplay:10.37,2013-06-19 21:18:00,
2013-06-19 17:23:00,75.0,41.5,30.13,West,270,4.4,5.8,30,0.00,SCT,,0.00,WeatherDisplay:10.37,2013-06-19 21:23:00,
2013-06-19 17:28:00,74.5,41.9,30.13,ENE,68,2.8,3.5,31,0.00,SCT,,0.00,WeatherDisplay:10.37,2013-06-19 21:28:00,
2013-06-19 17:33:00,75.0,41.5,30.13,West,270,2.0,2.3,30,0.00,SCT,,0.00,WeatherDisplay:10.37,2013-06-19 21:33:00,
2013-06-19 17:38:00,75.4,40.9,30.13,WSW,248,1.6,3.5,29,0.00,SCT,,0.00,WeatherDisplay:10.37,2013-06-19 21:38:00,
2013-06-19 17:43:00,76.3,39.8,30.13,NW,315,2.5,3.5,27,0.00,SCT,,0.00,WeatherDisplay:10.37,2013-06-19 21:43:00,
2013-06-19 17:48:00,75.0,40.6,30.13,NNW,338,4.3,5.8,29,0.00,SCT,,0.00,WeatherDisplay:10.37,2013-06-19 21:48:00,
2013-06-19 17:53:00,74.7,41.2,30.13,SW,225,2.2,4.2,30,0.00,SCT,,0.00,WeatherDisplay:10.37,2013-06-19 21:53:00,
2013-06-19 17:58:00,74.5,41.0,30.13,East,90,1.9,2.3,30,0.00,SCT,,0.00,WeatherDisplay:10.37,2013-06-19 21:58:00,
2013-06-19 18:03:00,73.8,39.5,30.13,West,270,3.4,4.6,29,0.00,SCT,,0.00,WeatherDisplay:10.37,2013-06-19 22:03:00,
2013-06-19 18:08:00,72.9,40.5,30.14,West,270,3.6,5.8,31,0.00,SCT,,0.00,WeatherDisplay:10.37,2013-06-19 22:08:00,
2013-06-19 18:13:00,73.4,39.2,30.14,West,270,2.0,3.5,29,0.00,SCT,,0.00,WeatherDisplay:10.37,2013-06-19 22:13:00,
2013-06-19 18:18:00,73.2,41.6,30.13,West,270,2.3,2.3,32,0.00,SCT,,0.00,WeatherDisplay:10.37,2013-06-19 22:18:00,
2013-06-19 18:23:00,73.8,39.5,30.13,West,270,4.1,5.3,29,0.00,SCT,,0.00,WeatherDisplay:10.37,2013-06-19 22:23:00,
2013-06-19 18:28:00,73.6,39.4,30.13,SSW,202,3.4,4.6,29,0.00,SCT,,0.00,WeatherDisplay:10.37,2013-06-19 22:28:00,
2013-06-19 18:33:00,72.5,39.3,30.13,West,270,2.4,4.6,30,0.00,SCT,,0.00,WeatherDisplay:10.37,2013-06-19 22:33:00,
2013-06-19 18:38:00,72.7,38.6,30.13,West,270,4.2,5.8,29,0.00,SCT,,0.00,WeatherDisplay:10.37,2013-06-19 22:38:00,
2013-06-19 18:43:00,73.6,38.5,30.13,ESE,112,3.4,3.5,28,0.00,SCT,,0.00,WeatherDisplay:10.37,2013-06-19 22:43:00,
2013-06-19 18:48:00,72.9,39.6,30.13,North,360,4.8,5.8,30,0.00,SCT,,0.00,WeatherDisplay:10.37,2013-06-19 22:48:00,
2013-06-19 18:53:00,73.0,39.7,30.14,West,270,4.0,5.8,30,0.00,SCT,,0.00,WeatherDisplay:10.37,2013-06-19 22:53:00,
2013-06-19 18:58:00,72.0,40.5,30.14,SW,225,2.5,4.2,32,0.00,SCT,,0.00,WeatherDisplay:10.37,2013-06-19 22:58:00,
2013-06-19 19:03:00,71.8,40.3,30.14,SW,225,2.9,5.8,32,0.00,SCT,,0.00,WeatherDisplay:10.37,2013-06-19 23:03:00,
2013-06-19 19:08:00,72.0,41.3,30.14,East,90,2.3,4.6,33,0.00,SCT,,0.00,WeatherDisplay:10.37,2013-06-19 23:08:00,
2013-06-19 19:13:00,72.3,40.8,30.14,NE,45,2.2,2.3,32,0.00,SCT,,0.00,WeatherDisplay:10.37,2013-06-19 23:13:00,
2013-06-19 19:18:00,70.9,40.3,30.14,ENE,68,3.1,5.8,33,0.00,SCT,,0.00,WeatherDisplay:10.37,2013-06-19 23:18:00,
2013-06-19 19:23:00,71.8,41.1,30.14,SE,135,0.5,1.1,33,0.00,SCT,,0.00,WeatherDisplay:10.37,2013-06-19 23:23:00,
2013-06-19 19:28:00,70.9,41.1,30.14,North,360,3.2,4.6,34,0.00,SCT,,0.00,WeatherDisplay:10.37,2013-06-19 23:28:00,
2013-06-19 19:33:00,70.2,41.3,30.14,NNE,22,3.7,4.6,35,0.00,SCT,,0.00,WeatherDisplay:10.37,2013-06-19 23:33:00,
2013-06-19 19:38:00,70.0,40.3,30.14,ESE,112,3.8,4.7,34,0.00,SCT,,0.00,WeatherDisplay:10.37,2013-06-19 23:38:00,
2013-06-19 19:43:00,70.3,42.8,30.15,WSW,248,0.6,1.1,37,0.00,SCT,,0.00,WeatherDisplay:10.37,2013-06-19 23:43:00,
2013-06-19 19:48:00,69.8,40.9,30.15,East,90,3.2,4.7,35,0.00,SCT,,0.00,WeatherDisplay:10.37,2013-06-19 23:48:00,
2013-06-19 19:53:00,69.1,41.0,30.14,West,270,2.7,5.8,36,0.00,SCT,,0.00,WeatherDisplay:10.37,2013-06-19 23:53:00,
2013-06-19 19:58:00,68.9,41.5,30.14,ESE,112,2.6,2.7,37,0.00,SCT,,0.00,WeatherDisplay:10.37,2013-06-19 23:58:00,
2013-06-19 20:03:00,68.9,41.5,30.14,NW,315,1.4,2.3,37,0.00,FEW,,0.00,WeatherDisplay:10.37,2013-06-20 00:03:00,
2013-06-19 20:08:00,68.5,41.2,30.14,East,90,2.4,4.6,37,0.00,FEW,,0.00,WeatherDisplay:10.37,2013-06-20 00:08:00,
2013-06-19 20:13:00,67.6,41.1,30.14,East,90,3.2,3.5,38,0.00,FEW,,0.00,WeatherDisplay:10.37,2013-06-20 00:13:00,
2013-06-19 20:18:00,67.1,42.0,30.14,East,90,1.6,2.3,40,0.00,FEW,,0.00,WeatherDisplay:10.37,2013-06-20 00:18:00,
2013-06-19 20:23:00,66.4,40.7,30.14,ESE,112,2.9,3.7,39,0.00,FEW,,0.00,WeatherDisplay:10.37,2013-06-20 00:23:00,
2013-06-19 20:28:00,66.0,41.6,30.14,East,90,1.5,1.7,41,0.00,FEW,,0.00,WeatherDisplay:10.37,2013-06-20 00:28:00,
2013-06-19 20:33:00,65.5,41.8,30.14,ESE,112,0.5,1.7,42,0.00,FEW,,0.00,WeatherDisplay:10.37,2013-06-20 00:33:00,
2013-06-19 20:38:00,64.8,41.8,30.14,ESE,112,0.1,1.1,43,0.00,FEW,,0.00,WeatherDisplay:10.37,2013-06-20 00:38:00,
2013-06-19 20:43:00,64.0,42.2,30.14,ESE,112,0.3,1.7,45,0.00,FEW,,0.00,WeatherDisplay:10.37,2013-06-20 00:43:00,
2013-06-19 20:48:00,63.3,42.2,30.14,ENE,68,0.4,1.1,46,0.00,FEW,,0.00,WeatherDisplay:10.37,2013-06-20 00:48:00,
2013-06-19 20:53:00,62.6,42.1,30.15,ENE,68,0.0,0.0,47,0.00,FEW,,0.00,WeatherDisplay:10.37,2013-06-20 00:53:00,
2013-06-19 20:58:00,61.3,42.0,30.15,NE,45,0.0,0.0,49,0.00,FEW,,0.00,WeatherDisplay:10.37,2013-06-20 00:58:00,
2013-06-19 21:03:00,60.6,41.8,30.15,NE,45,0.0,0.0,50,0.00,FEW,,0.00,WeatherDisplay:10.37,2013-06-20 01:03:00,
2013-06-19 21:08:00,59.7,42.0,30.14,NE,45,0.0,0.0,52,0.00,FEW,,0.00,WeatherDisplay:10.37,2013-06-20 01:08:00,
2013-06-19 21:13:00,59.0,43.3,30.14,SE,135,1.4,1.4,56,0.00,SCT,,0.00,WeatherDisplay:10.37,2013-06-20 01:13:00,
2013-06-19 21:18:00,58.5,45.1,30.14,SE,135,0.4,1.1,61,0.00,SCT,,0.00,WeatherDisplay:10.37,2013-06-20 01:18:00,
2013-06-19 21:23:00,57.9,45.0,30.14,SE,135,0.0,0.0,62,0.00,SCT,,0.00,WeatherDisplay:10.37,2013-06-20 01:23:00,
2013-06-19 21:28:00,57.4,45.3,30.15,SE,135,0.0,0.0,64,0.00,SCT,,0.00,WeatherDisplay:10.37,2013-06-20 01:28:00,
2013-06-19 21:33:00,56.5,45.7,30.15,East,90,0.0,0.0,67,0.00,SCT,,0.00,WeatherDisplay:10.37,2013-06-20 01:33:00,
2013-06-19 21:38:00,55.9,45.5,30.15,SSE,158,0.0,0.0,68,0.00,SCT,,0.00,WeatherDisplay:10.37,2013-06-20 01:38:00,
2013-06-19 21:43:00,55.4,45.8,30.15,SSE,158,0.0,0.0,70,0.00,SCT,,0.00,WeatherDisplay:10.37,2013-06-20 01:43:00,
2013-06-19 21:48:00,55.0,45.8,30.15,ESE,112,0.0,0.0,71,0.00,SCT,,0.00,WeatherDisplay:10.37,2013-06-20 01:48:00,
2013-06-19 21:53:00,54.3,45.8,30.16,SSE,158,0.0,0.0,73,0.00,SCT,,0.00,WeatherDisplay:10.37,2013-06-20 01:53:00,
2013-06-19 21:58:00,54.0,45.9,30.16,SSE,158,0.0,0.0,74,0.00,SCT,,0.00,WeatherDisplay:10.37,2013-06-20 01:58:00,
2013-06-19 22:03:00,53.6,46.9,30.16,SE,135,0.0,1.1,78,0.00,SCT,,0.00,WeatherDisplay:10.37,2013-06-20 02:03:00,
2013-06-19 22:08:00,53.2,46.5,30.16,East,90,0.0,0.0,78,0.00,SCT,,0.00,WeatherDisplay:10.37,2013-06-20 02:08:00,
2013-06-19 22:13:00,52.7,47.0,30.16,SE,135,1.3,1.3,81,0.00,SCT,,0.00,WeatherDisplay:10.37,2013-06-20 02:13:00,
2013-06-19 22:18:00,52.5,46.8,30.17,ESE,112,0.7,1.1,81,0.00,SCT,,0.00,WeatherDisplay:10.37,2013-06-20 02:18:00,
2013-06-19 22:23:00,52.2,46.9,30.17,South,180,0.0,0.0,82,0.00,SCT,,0.00,WeatherDisplay:10.37,2013-06-20 02:23:00,
2013-06-19 22:28:00,52.0,47.0,30.17,ESE,112,0.0,1.1,83,0.00,SCT,,0.00,WeatherDisplay:10.37,2013-06-20 02:28:00,
2013-06-19 22:33:00,51.6,46.9,30.17,SE,135,1.7,1.7,84,0.00,SCT,,0.00,WeatherDisplay:10.37,2013-06-20 02:33:00,
2013-06-19 22:38:00,51.4,47.0,30.17,ESE,112,1.3,1.3,85,0.00,SCT,,0.00,WeatherDisplay:10.37,2013-06-20 02:38:00,
2013-06-19 22:43:00,51.1,47.1,30.17,SE,135,0.0,0.0,86,0.00,SCT,,0.00,WeatherDisplay:10.37,2013-06-20 02:43:00,
2013-06-19 22:48:00,50.9,46.9,30.17,NE,45,0.0,0.0,86,0.00,SCT,,0.00,WeatherDisplay:10.37,2013-06-20 02:48:00,
2013-06-19 22:53:00,50.5,46.8,30.18,East,90,0.2,1.7,87,0.00,SCT,,0.00,WeatherDisplay:10.37,2013-06-20 02:53:00,
2013-06-19 22:58:00,50.2,46.8,30.18,SE,135,0.0,0.0,88,0.00,SCT,,0.00,WeatherDisplay:10.37,2013-06-20 02:58:00,
2013-06-19 23:03:00,50.2,47.1,30.18,SE,135,0.0,0.0,89,0.00,SCT,,0.00,WeatherDisplay:10.37,2013-06-20 03:03:00,
2013-06-19 23:08:00,50.0,46.9,30.18,SE,135,0.0,0.0,89,0.00,SCT,,0.00,WeatherDisplay:10.37,2013-06-20 03:08:00,
2013-06-19 23:13:00,49.8,47.0,30.18,ESE,112,0.0,0.0,90,0.00,FEW,,0.00,WeatherDisplay:10.37,2013-06-20 03:13:00,
2013-06-19 23:18:00,49.8,47.3,30.17,SE,135,0.0,0.0,91,0.00,FEW,,0.00,WeatherDisplay:10.37,2013-06-20 03:18:00,
2013-06-19 23:23:00,49.6,47.4,30.17,SSE,158,0.0,0.0,92,0.00,FEW,,0.00,WeatherDisplay:10.37,2013-06-20 03:23:00,
2013-06-19 23:28:00,49.5,47.3,30.18,SSE,158,0.0,0.0,92,0.00,FEW,,0.00,WeatherDisplay:10.37,2013-06-20 03:28:00,
2013-06-19 23:33:00,49.3,47.1,30.18,ESE,112,0.0,0.0,92,0.00,FEW,,0.00,WeatherDisplay:10.37,2013-06-20 03:33:00,
2013-06-19 23:38:00,49.1,46.9,30.18,ESE,112,0.0,0.0,92,0.00,FEW,,0.00,WeatherDisplay:10.37,2013-06-20 03:38:00,
2013-06-19 23:43:00,48.9,47.0,30.19,ESE,112,0.3,1.1,93,0.00,FEW,,0.00,WeatherDisplay:10.37,2013-06-20 03:43:00,
2013-06-19 23:48:00,48.9,47.0,30.19,SSE,158,1.2,2.7,93,0.00,FEW,,0.00,WeatherDisplay:10.37,2013-06-20 03:48:00,
2013-06-19 23:53:00,48.9,47.0,30.18,ESE,112,0.0,0.0,93,0.00,FEW,,0.00,WeatherDisplay:10.37,2013-06-20 03:53:00,
2013-06-19 23:58:00,48.9,47.0,30.18,SE,135,1.8,2.3,93,0.00,FEW,,0.00,WeatherDisplay:10.37,2013-06-20 03:58:00,